GW3397 Weather Reports


Display with metric or nautical units.
time (UTC)temp
F
wind
direction
speed
MPH
gust
MPH
rain 1hr
in
rain 24hr
in
rain mn
in
humidity
%
barometer
mb
20260504044449 46 346 1.0 3.0 0.00 0.00 0.00 84 1013.9
20260504043946 46 342 0.0 3.0 0.00 0.00 0.00 83 1013.5
20260504043443 46 351 0.0 0.0 0.00 0.00 0.00 83 1013.5
20260504042940 46 350 1.0 1.0 0.00 0.00 0.00 82 1013.2
20260504042431 46 253 1.0 1.0 0.00 0.00 0.00 82 1013.3
20260504041927 46 289 0.0 1.0 0.00 0.00 0.00 82 1013.2
20260504041424 45 199 1.0 2.0 0.00 0.00 0.00 83 1013.3
20260504040920 45 208 1.0 2.0 0.00 0.00 0.00 83 1013.5
20260504040418 45 216 2.0 5.0 0.00 0.00 0.00 82 1013.9
20260504035908 46 241 0.0 1.0 0.00 0.00 0.00 82 1014.0
20260504035406 45 314 0.0 0.0 0.00 0.00 0.00 81 1014.0
20260504034902 45 304 0.0 1.0 0.00 0.00 0.00 81 1014.0
20260504034400 46 226 2.0 2.0 0.00 0.00 0.00 80 1014.1
20260504033856 46 300 1.0 1.0 0.00 0.00 0.00 78 1014.1
20260504033354 46 315 0.0 1.0 0.00 0.00 0.00 77 1014.0
20260504032851 46 303 3.0 3.0 0.00 0.00 0.00 75 1014.3
20260504032348 46 256 1.0 3.0 0.00 0.00 0.00 74 1014.3
20260504031845 46 320 0.0 1.0 0.00 0.00 0.00 73 1014.4
20260504031342 46 306 2.0 2.0 0.00 0.00 0.00 71 1014.4
20260504030838 46 323 0.0 1.0 0.00 0.00 0.00 70 1014.5
20260504030336 46 320 0.0 0.0 0.00 0.00 0.00 70 1014.2
20260504025832 45 300 1.0 1.0 0.00 0.00 0.00 70 1013.9
20260504025329 46 325 0.0 0.0 0.00 0.00 0.00 70 1013.7
20260504024825 46 244 2.0 2.0 0.00 0.00 0.00 69 1013.6
20260504024322 46 242 2.0 2.0 0.00 0.00 0.00 68 1013.6
20260504023819 46 230 1.0 1.0 0.00 0.00 0.00 69 1013.7
20260504023315 45 247 1.0 2.0 0.00 0.00 0.00 69 1013.6
20260504022811 45 262 1.0 1.0 0.00 0.00 0.00 68 1013.6
20260504022308 45 263 0.0 1.0 0.00 0.00 0.00 68 1013.7
20260504021804 45 226 1.0 2.0 0.00 0.00 0.00 68 1013.6
20260504021303 45 247 1.0 1.0 0.00 0.00 0.00 67 1013.7
20260504020759 45 235 1.0 2.0 0.00 0.00 0.00 66 1013.5
20260504020255 45 260 1.0 1.0 0.00 0.00 0.00 66 1013.7
20260504015751 45 262 1.0 1.0 0.00 0.00 0.00 66 1013.6
20260504015248 45 274 0.0 0.0 0.00 0.00 0.00 66 1013.6
20260504014744 45 291 1.0 1.0 0.00 0.00 0.00 66 1013.6
20260504014240 45 299 0.0 2.0 0.00 0.00 0.00 65 1013.4
20260504013738 46 308 2.0 5.0 0.00 0.00 0.00 65 1013.7
20260504013236 45 332 1.0 5.0 0.00 0.00 0.00 65 1013.5
20260504012732 45 301 1.0 2.0 0.00 0.00 0.00 66 1013.4
20260504012230 45 272 1.0 1.0 0.00 0.00 0.00 66 1013.5
20260504011727 45 228 0.0 0.0 0.00 0.00 0.00 65 1013.2
20260504011224 46 258 0.0 0.0 0.00 0.00 0.00 64 1013.6
20260504010720 46 293 0.0 0.0 0.00 0.00 0.00 63 1013.4
20260504010215 46 280 0.0 0.0 0.00 0.00 0.00 63 1013.6
20260504005712 46 317 0.0 1.0 0.00 0.00 0.00 62 1013.5
20260504005209 46 317 0.0 1.0 0.00 0.00 0.00 62 1013.6
20260504004707 46 310 0.0 0.0 0.00 0.00 0.00 62 1013.5
20260504004204 47 317 0.0 0.0 0.00 0.00 0.00 60 1013.6
20260504003701 47 275 1.0 2.0 0.00 0.00 0.00 60 1013.1
20260504003157 47 302 0.0 1.0 0.00 0.00 0.00 60 1013.3
20260504002654 47 268 2.0 3.0 0.00 0.00 0.00 59 1013.3
20260504002151 48 300 1.0 1.0 0.00 0.00 0.00 59 1012.9
20260504001649 48 317 0.0 1.0 0.00 0.00 0.00 58 1013.0
20260504001145 49 290 3.0 3.0 0.00 0.00 0.00 57 1012.8
20260504000642 49 302 1.0 2.0 0.00 0.00 0.00 57 1013.0
20260504000140 50 296 3.0 5.0 0.00 0.00 0.00 56 1012.8
20260503235638 50 329 2.0 6.0 0.00 0.00 0.00 54 1013.1
20260503235134 51 309 4.0 5.0 0.00 0.00 0.00 54 1012.9
20260503234632 51 308 5.0 7.0 0.00 0.00 0.00 52 1012.9
20260503234130 51 314 6.0 15.0 0.00 0.00 0.00 52 1012.8
20260503233627 51 266 13.0 18.0 0.00 0.00 0.00 51 1013.1
20260503233122 51 315 5.0 7.0 0.00 0.00 0.00 52 1013.0
20260503232619 51 289 3.0 8.0 0.00 0.00 0.00 50 1012.9
20260503232117 51 279 9.0 11.0 0.00 0.00 0.00 50 1013.0
20260503231615 51 288 9.0 11.0 0.00 0.00 0.00 49 1013.0
20260503231111 52 269 5.0 9.0 0.00 0.00 0.00 50 1012.7
20260503230609 52 327 8.0 11.0 0.00 0.00 0.00 49 1012.8
20260503230105 52 316 5.0 10.0 0.00 0.00 0.00 49 1012.7
20260503225602 52 287 9.0 11.0 0.00 0.00 0.00 48 1012.7
20260503225056 52 302 10.0 13.0 0.00 0.00 0.00 47 1012.7
20260503224555 52 330 8.0 11.0 0.00 0.00 0.00 47 1012.6
20260503224052 52 297 7.0 10.0 0.00 0.00 0.00 49 1012.5
20260503223550 52 279 8.0 10.0 0.00 0.00 0.00 48 1012.4
20260503223045 52 298 4.0 13.0 0.00 0.00 0.00 46 1012.4
20260503222544 52 290 6.0 8.0 0.00 0.00 0.00 48 1012.5
20260503222041 52 280 11.0 14.0 0.00 0.00 0.00 44 1012.6
20260503221539 53 305 13.0 17.0 0.00 0.00 0.00 44 1012.3
20260503221036 53 294 12.0 14.0 0.00 0.00 0.00 44 1012.4
20260503220532 53 297 12.0 14.0 0.00 0.00 0.00 45 1012.6
20260503220029 53 301 9.0 14.0 0.00 0.00 0.00 44 1012.3
20260503215527 53 291 9.0 13.0 0.00 0.00 0.00 43 1012.5
20260503215024 52 297 12.0 20.0 0.00 0.00 0.00 43 1012.6
20260503214522 52 322 9.0 15.0 0.00 0.00 0.00 43 1012.5
20260503214018 53 304 13.0 16.0 0.00 0.00 0.00 43 1012.5
20260503213517 53 320 12.0 14.0 0.00 0.00 0.00 42 1012.2
20260503213013 52 300 13.0 20.0 0.00 0.00 0.00 42 1012.4
20260503212510 53 274 15.0 21.0 0.00 0.00 0.00 40 1012.4
20260503212008 53 272 9.0 16.0 0.00 0.00 0.00 39 1012.3
20260503211504 55 304 9.0 17.0 0.00 0.00 0.00 38 1012.2
20260503211000 54 230 14.0 16.0 0.00 0.00 0.00 39 1012.2
20260503210457 55 306 9.0 17.0 0.00 0.00 0.00 37 1012.2
20260503205952 55 303 15.0 17.0 0.00 0.00 0.00 37 1012.1
20260503205449 55 329 7.0 13.0 0.00 0.00 0.00 36 1012.2
20260503204945 54 296 13.0 27.0 0.00 0.00 0.00 36 1012.1
20260503204442 54 319 10.0 17.0 0.00 0.00 0.00 36 1012.2
20260503203939 54 306 17.0 22.0 0.00 0.00 0.00 35 1012.3
20260503203437 54 250 9.0 22.0 0.00 0.00 0.00 36 1012.5
20260503202933 55 337 14.0 25.0 0.00 0.00 0.00 36 1012.5
20260503202432 54 289 12.0 23.0 0.00 0.00 0.00 36 1012.4
20260503201930 54 297 9.0 16.0 0.00 0.00 0.00 35 1012.5
20260503201427 53 331 17.0 21.0 0.00 0.00 0.00 35 1012.6
20260503200924 53 336 8.0 20.0 0.00 0.00 0.00 36 1012.7
20260503200420 54 342 7.0 23.0 0.00 0.00 0.00 36 1012.6
20260503195917 54 337 10.0 21.0 0.00 0.00 0.00 36 1012.7
20260503195415 53 344 15.0 21.0 0.00 0.00 0.00 37 1012.7
20260503194911 53 290 9.0 14.0 0.00 0.00 0.00 38 1012.7
20260503194408 53 282 9.0 17.0 0.00 0.00 0.00 40 1012.9
20260503193903 53 297 7.0 20.0 0.00 0.00 0.00 38 1012.9
20260503193359 53 288 16.0 20.0 0.00 0.00 0.00 37 1013.0
20260503192855 53 322 13.0 22.0 0.00 0.00 0.00 38 1012.9
20260503192350 53 294 9.0 16.0 0.00 0.00 0.00 37 1013.3
20260503191847 54 262 11.0 15.0 0.00 0.00 0.00 39 1013.2
20260503191345 53 337 7.0 18.0 0.00 0.00 0.00 40 1013.3
20260503190841 52 297 10.0 16.0 0.00 0.00 0.00 41 1013.0
20260503190338 53 289 12.0 21.0 0.00 0.00 0.00 40 1013.4
20260503185835 53 266 9.0 13.0 0.00 0.00 0.00 42 1013.5
20260503185331 53 277 14.0 16.0 0.00 0.00 0.00 40 1013.4
20260503184831 52 270 8.0 15.0 0.00 0.00 0.00 44 1013.4
20260503184327 52 300 13.0 16.0 0.00 0.00 0.00 44 1013.4
20260503183823 51 306 12.0 17.0 0.00 0.00 0.00 42 1013.5
20260503183321 51 290 12.0 22.0 0.00 0.00 0.00 41 1013.6
20260503182818 52 294 14.0 22.0 0.00 0.00 0.00 43 1013.9
20260503182317 51 288 9.0 13.0 0.00 0.00 0.00 42 1013.9
20260503181814 52 303 11.0 18.0 0.00 0.00 0.00 44 1013.7
20260503181311 52 331 12.0 15.0 0.00 0.00 0.00 43 1013.9
20260503180807 51 304 13.0 16.0 0.00 0.00 0.00 44 1014.1
20260503180306 51 321 9.0 16.0 0.00 0.00 0.00 46 1013.9
20260503175801 50 269 11.0 20.0 0.00 0.00 0.00 46 1013.9
20260503175300 50 342 9.0 16.0 0.00 0.00 0.00 45 1014.2
20260503174755 50 297 12.0 15.0 0.00 0.00 0.00 45 1014.0
20260503174253 50 294 5.0 8.0 0.00 0.00 0.00 49 1014.1
20260503173748 49 310 11.0 13.0 0.00 0.00 0.00 48 1013.9
20260503173244 48 292 6.0 7.0 0.00 0.00 0.00 49 1014.4
20260503172741 48 334 6.0 10.0 0.00 0.00 0.00 49 1014.3
20260503172238 48 296 4.0 16.0 0.00 0.00 0.00 49 1014.3
20260503171735 49 283 10.0 13.0 0.00 0.00 0.00 49 1014.5
20260503171232 49 307 5.0 10.0 0.00 0.00 0.00 49 1014.6
20260503170729 48 308 4.0 9.0 0.00 0.00 0.00 51 1014.4
20260503170226 48 281 11.0 15.0 0.00 0.00 0.00 49 1014.5
20260503160147 45 314 11.0 14.0 0.00 0.00 0.00 54 1015.1
20260503150617 44 345 6.0 9.0 0.00 0.00 0.00 57 1015.2
20260503150114 44 321 7.0 10.0 0.00 0.00 0.00 54 1015.2
20260503131007 43 289 11.0 15.0 0.00 0.00 0.00 64 1015.9
20260503130505 42 301 9.0 13.0 0.00 0.00 0.00 65 1016.0
20260503110350 38 322 7.0 8.0 0.00 0.00 0.00 85 1015.2
20260503090218 37 308 3.0 7.0 0.00 0.00 0.00 87 1014.8
20260503081145 37 336 0.0 0.0 0.00 0.00 0.00 86 1015.1
20260503080641 37 321 0.0 0.0 0.00 0.00 0.00 86 1015.1
20260503080138 37 327 0.0 2.0 0.00 0.00 0.00 86 1015.2
20260503072614 37 292 4.0 5.0 0.00 0.00 0.00 85 1015.1
20260503072111 37 296 1.0 1.0 0.00 0.00 0.00 85 1015.1
20260503071608 37 274 5.0 6.0 0.00 0.00 0.00 85 1015.1
20260503071104 37 304 2.0 2.0 0.00 0.00 0.00 85 1015.1
20260503070601 37 263 2.0 5.0 0.00 0.00 0.00 85 1015.4
20260503055015 37 270 3.0 6.0 0.00 0.00 0.00 84 1015.8
20260503054511 37 311 2.0 2.0 0.00 0.00 0.00 84 1015.9
20260503054008 37 309 1.0 1.0 0.00 0.00 0.00 84 1016.1
20260503053506 37 318 2.0 2.0 0.00 0.00 0.00 84 1016.0
20260503053002 37 271 3.0 3.0 0.00 0.00 0.00 84 1016.2
20260503052500 37 271 3.0 3.0 0.00 0.00 0.00 84 1016.2
20260503051956 37 271 3.0 3.0 0.00 0.00 0.00 84 1016.0
20260503051452 37 315 4.0 5.0 0.00 0.00 0.00 84 1016.2
20260503050950 37 279 5.0 6.0 0.00 0.00 0.00 84 1016.2
20260503050445 37 291 3.0 3.0 0.00 0.00 0.00 84 1016.5
20260503045943 37 291 3.0 3.0 0.00 0.00 0.00 84 1016.4
20260503045440 36 316 5.0 6.0 0.00 0.00 0.00 84 1016.5
20260503044936 36 300 3.0 7.0 0.00 0.00 0.00 84 1016.4